Visalia, CA

2:16 PM PDT on August 24, 2019 (GMT -0700)
Visalia Municipal

Weather History for KVIS - July, 2019

Change the Weather History Date:

Tuesday, July 16, 2019

  Actual Average Record
Temperature  
Mean Temperature 79 °F -  
Max Temperature 96 °F 96 °F 110 °F (1935)
Min Temperature 63 °F 66 °F 55 °F (1940)
Cooling Degree Days 14    
Growing Degree Days 29 (Base 50)    
Moisture  
Dew Point 56 °F    
Average Humidity 46    
Maximum Humidity 81    
Minimum Humidity 25    
Precipitation  
Precipitation 0.00 in - - ()
Sea Level Pressure  
Sea Level Pressure 29.86 in    
Wind  
Wind Speed 8 mph (WNW)    
Max Wind Speed 17 mph    
Max Gust Speed -    
Visibility 10 miles    
Events      
Averages and records for this station are not official NWS values.
T = Trace of Precipitation, MM = Missing Value Source: NWS Daily Summary

Daily Weather History Graph

Daily Weather History Graph

Search for Another Location

Airport or City:

Astronomy

Jul. 16, 2019 Rise Set
Actual Time 5:52 AM PDT 8:14 PM PDT
Civil Twilight 5:22 AM PDT 8:44 PM PDT
Nautical Twilight 4:46 AM PDT 9:20 PM PDT
Astronomical Twilight 4:06 AM PDT 10:00 PM PDT
Moon 8:24 PM PDT (7/16) 5:35 AM PDT (7/16)
Length of Visible Light 15h 21m
Length of Day
14h 22m
Full, 100% of the Moon is Illuminated
Jul 16
Full
Jul 16
Full
Jul 24
Last Quarter
Jul 31
New
Aug 7
First Quarter

Hourly Weather History & Observations

Time (PDT) Temp. Heat Index Dew Point Humidity Pressure Visibility Wind Dir Wind Speed Gust Speed Precip Events Conditions
12:56 AM 75.0 °F - 55.0 °F 50% 29.88 in 10.0 mi NNW 10.4 mph - N/A   Clear
1:56 AM 73.9 °F - 53.1 °F 48% 29.87 in 10.0 mi NNW 9.2 mph - N/A   Clear
2:56 AM 71.1 °F - 54.0 °F 55% 29.86 in 10.0 mi NNW 6.9 mph - N/A   Clear
3:56 AM 66.9 °F - 55.0 °F 66% 29.86 in 10.0 mi Calm Calm - N/A   Clear
4:56 AM 64.0 °F - 55.9 °F 75% 29.87 in 10.0 mi WSW 4.6 mph - N/A   Clear
5:56 AM 63.0 °F - 57.0 °F 81% 29.88 in 10.0 mi Calm Calm - N/A   Clear
6:56 AM 66.0 °F - 57.0 °F 73% 29.89 in 10.0 mi Calm Calm - N/A   Clear
7:56 AM 70.0 °F - 57.0 °F 63% 29.90 in 10.0 mi Calm Calm - N/A   Clear
8:56 AM 73.9 °F - 57.9 °F 57% 29.91 in 10.0 mi South 5.8 mph - N/A   Clear
9:56 AM 77.0 °F - 57.9 °F 52% 29.91 in 10.0 mi South 6.9 mph - N/A   Clear
10:56 AM 82.9 °F 82.8 °F 59.0 °F 44% 29.90 in 10.0 mi Variable 5.8 mph - N/A   Clear
11:56 AM 86.0 °F 84.9 °F 57.0 °F 37% 29.89 in 10.0 mi West 9.2 mph - N/A   Clear
12:56 PM 89.1 °F 87.3 °F 55.9 °F 32% 29.88 in 10.0 mi West 9.2 mph - N/A   Clear
1:56 PM 91.9 °F 90.0 °F 55.0 °F 29% 29.86 in 10.0 mi Variable 6.9 mph - N/A   Clear
2:56 PM 93.9 °F 92.6 °F 57.0 °F 29% 29.84 in 10.0 mi West 9.2 mph - N/A   Clear
3:56 PM 95.0 °F 93.7 °F 57.0 °F 28% 29.82 in 10.0 mi WNW 12.7 mph - N/A   Clear
4:56 PM 95.0 °F 93.0 °F 55.0 °F 26% 29.80 in 10.0 mi WNW 12.7 mph - N/A   Clear
5:56 PM 95.0 °F 92.7 °F 54.0 °F 25% 29.79 in 10.0 mi WNW 13.8 mph - N/A   Clear
6:56 PM 93.0 °F 90.8 °F 54.0 °F 27% 29.79 in 10.0 mi WNW 13.8 mph - N/A   Clear
7:56 PM 89.1 °F 88.2 °F 59.0 °F 36% 29.80 in 10.0 mi NW 13.8 mph - N/A   Clear
8:56 PM 84.0 °F 84.0 °F 60.1 °F 44% 29.81 in 10.0 mi NW 10.4 mph - N/A   Clear
9:56 PM 81.0 °F 81.3 °F 59.0 °F 47% 29.83 in 10.0 mi NW 12.7 mph - N/A   Clear
10:56 PM 80.1 °F - 52.0 °F 38% 29.84 in 10.0 mi NW 17.3 mph - N/A   Clear
11:56 PM 77.0 °F - 52.0 °F 42% 29.85 in 10.0 mi NNW 10.4 mph - N/A   Clear